Year,Month,Day,Hour,Minute,Value (Times are PST for temperature in C)
2014,08,05,00,00,18.20
2014,08,05,00,01,18.10
2014,08,05,00,02,18.10
2014,08,05,00,03,18.00
2014,08,05,00,04,17.90
2014,08,05,00,05,17.90
2014,08,05,00,06,17.80
2014,08,05,00,07,17.80
2014,08,05,00,08,17.70
2014,08,05,00,09,17.70
2014,08,05,00,10,17.60
2014,08,05,00,11,17.60
2014,08,05,00,12,17.60
2014,08,05,00,13,17.50
2014,08,05,00,14,17.50
2014,08,05,00,15,17.40
2014,08,05,00,16,17.40
2014,08,05,00,17,17.40
2014,08,05,00,18,17.40
2014,08,05,00,19,17.30
2014,08,05,00,20,17.30
2014,08,05,00,21,17.30
2014,08,05,00,22,17.30
2014,08,05,00,23,17.30
2014,08,05,00,24,17.20
2014,08,05,00,25,17.20
2014,08,05,00,26,17.20
2014,08,05,00,27,17.20
2014,08,05,00,28,17.20
2014,08,05,00,29,17.20
2014,08,05,00,30,17.20
2014,08,05,00,31,17.10
2014,08,05,00,32,17.10
2014,08,05,00,33,17.10
2014,08,05,00,34,17.00
2014,08,05,00,35,17.00
2014,08,05,00,36,17.00
2014,08,05,00,37,17.00
2014,08,05,00,38,17.00
2014,08,05,00,39,17.00
2014,08,05,00,40,17.00
2014,08,05,00,41,17.00
2014,08,05,00,42,17.10
2014,08,05,00,43,17.00
2014,08,05,00,44,17.00
2014,08,05,00,45,17.00
2014,08,05,00,46,17.00
2014,08,05,00,47,16.90
2014,08,05,00,48,16.90
2014,08,05,00,49,16.90
2014,08,05,00,50,16.90
2014,08,05,00,51,16.90
2014,08,05,00,52,16.80
2014,08,05,00,53,16.80
2014,08,05,00,54,16.80
2014,08,05,00,55,16.80
2014,08,05,00,56,16.80
2014,08,05,00,57,16.70
2014,08,05,00,58,16.70
2014,08,05,00,59,16.70
2014,08,05,01,00,16.70
2014,08,05,01,01,16.70
2014,08,05,01,02,16.70
2014,08,05,01,03,16.70
2014,08,05,01,04,16.60
2014,08,05,01,05,16.60
2014,08,05,01,06,16.60
2014,08,05,01,07,16.60
2014,08,05,01,08,16.60
2014,08,05,01,09,16.50
2014,08,05,01,10,16.50
2014,08,05,01,11,16.50
2014,08,05,01,12,16.50
2014,08,05,01,13,16.40
2014,08,05,01,14,16.40
2014,08,05,01,15,16.40
2014,08,05,01,16,16.40
2014,08,05,01,17,16.40
2014,08,05,01,18,16.40
2014,08,05,01,19,16.40
2014,08,05,01,20,16.40
2014,08,05,01,21,16.40
2014,08,05,01,22,16.40
2014,08,05,01,23,16.40
2014,08,05,01,24,16.40
2014,08,05,01,25,16.40
2014,08,05,01,26,16.40
2014,08,05,01,27,16.30
2014,08,05,01,28,16.30
2014,08,05,01,29,16.30
2014,08,05,01,30,16.30
2014,08,05,01,31,16.30
2014,08,05,01,32,16.30
2014,08,05,01,33,16.30
2014,08,05,01,34,16.30
2014,08,05,01,35,16.30
2014,08,05,01,36,16.30
2014,08,05,01,37,16.20
2014,08,05,01,38,16.20
2014,08,05,01,39,16.20
2014,08,05,01,40,16.20
2014,08,05,01,41,16.20
2014,08,05,01,42,16.20
2014,08,05,01,43,16.20
2014,08,05,01,44,16.20
2014,08,05,01,45,16.10
2014,08,05,01,46,16.10
2014,08,05,01,47,16.10
2014,08,05,01,48,16.10
2014,08,05,01,49,16.10
2014,08,05,01,50,16.00
2014,08,05,01,51,16.00
2014,08,05,01,52,16.00
2014,08,05,01,53,16.00
2014,08,05,01,54,15.90
2014,08,05,01,55,15.90
2014,08,05,01,56,15.90
2014,08,05,01,57,15.90
2014,08,05,01,58,15.90
2014,08,05,01,59,15.90
2014,08,05,02,00,15.90
2014,08,05,02,01,15.90
2014,08,05,02,02,15.80
2014,08,05,02,03,15.80
2014,08,05,02,04,15.80
2014,08,05,02,05,15.80
2014,08,05,02,06,15.80
2014,08,05,02,07,15.80
2014,08,05,02,08,15.70
2014,08,05,02,09,15.70
2014,08,05,02,10,15.70
2014,08,05,02,11,15.70
2014,08,05,02,12,15.70
2014,08,05,02,13,15.70
2014,08,05,02,14,15.70
2014,08,05,02,15,15.70
2014,08,05,02,16,15.70
2014,08,05,02,17,15.70
2014,08,05,02,18,15.70
2014,08,05,02,19,15.70
2014,08,05,02,20,15.70
2014,08,05,02,21,15.70
2014,08,05,02,22,15.70
2014,08,05,02,23,15.70
2014,08,05,02,24,15.70
2014,08,05,02,25,15.70
2014,08,05,02,26,15.70
2014,08,05,02,27,15.70
2014,08,05,02,28,15.70
2014,08,05,02,29,15.70
2014,08,05,02,30,15.70
2014,08,05,02,31,15.70
2014,08,05,02,32,15.70
2014,08,05,02,33,15.60
2014,08,05,02,34,15.60
2014,08,05,02,35,15.60
2014,08,05,02,36,15.60
2014,08,05,02,37,15.60
2014,08,05,02,38,15.60
2014,08,05,02,39,15.60
2014,08,05,02,40,15.60
2014,08,05,02,41,15.60
2014,08,05,02,42,15.60
2014,08,05,02,43,15.60
2014,08,05,02,44,15.60
2014,08,05,02,45,15.60
2014,08,05,02,46,15.60
2014,08,05,02,47,15.60
2014,08,05,02,48,15.60
2014,08,05,02,49,15.60
2014,08,05,02,50,15.60
2014,08,05,02,51,15.60
2014,08,05,02,52,15.60
2014,08,05,02,53,15.60
2014,08,05,02,54,15.70
2014,08,05,02,55,15.60
2014,08,05,02,56,15.60
2014,08,05,02,57,15.70
2014,08,05,02,58,15.60
2014,08,05,02,59,15.60
2014,08,05,03,00,15.60
2014,08,05,03,01,15.60
2014,08,05,03,02,15.60
2014,08,05,03,03,15.60
2014,08,05,03,04,15.60
2014,08,05,03,05,15.60
2014,08,05,03,06,15.60
2014,08,05,03,07,15.60
2014,08,05,03,08,15.60
2014,08,05,03,09,15.60
2014,08,05,03,10,15.60
2014,08,05,03,11,15.60
2014,08,05,03,12,15.60
2014,08,05,03,13,15.60
2014,08,05,03,14,15.60
2014,08,05,03,15,15.50
2014,08,05,03,16,15.50
2014,08,05,03,17,15.50
2014,08,05,03,18,15.50
2014,08,05,03,19,15.50
2014,08,05,03,20,15.40
2014,08,05,03,21,15.40
2014,08,05,03,22,15.40
2014,08,05,03,23,15.40
2014,08,05,03,24,15.40
2014,08,05,03,25,15.40
2014,08,05,03,26,15.40
2014,08,05,03,27,15.30
2014,08,05,03,28,15.30
2014,08,05,03,29,15.30
2014,08,05,03,30,15.30
2014,08,05,03,31,15.30
2014,08,05,03,32,15.30
2014,08,05,03,33,15.30
2014,08,05,03,34,15.30
2014,08,05,03,35,15.30
2014,08,05,03,36,15.30
2014,08,05,03,37,15.30
2014,08,05,03,38,15.30
2014,08,05,03,39,15.30
2014,08,05,03,40,15.20
2014,08,05,03,41,15.20
2014,08,05,03,42,15.20
2014,08,05,03,43,15.20
2014,08,05,03,44,15.20
2014,08,05,03,45,15.20
2014,08,05,03,46,15.20
2014,08,05,03,47,15.20
2014,08,05,03,48,15.20
2014,08,05,03,49,15.20
2014,08,05,03,50,15.20
2014,08,05,03,51,15.10
2014,08,05,03,52,15.10
2014,08,05,03,53,15.10
2014,08,05,03,54,15.10
2014,08,05,03,55,15.10
2014,08,05,03,56,15.10
2014,08,05,03,57,15.10
2014,08,05,03,58,15.10
2014,08,05,03,59,15.00
2014,08,05,04,00,15.00
2014,08,05,04,01,15.00
2014,08,05,04,02,15.00
2014,08,05,04,03,15.00
2014,08,05,04,04,15.00
2014,08,05,04,05,15.00
2014,08,05,04,06,15.00
2014,08,05,04,07,15.00
2014,08,05,04,08,15.00
2014,08,05,04,09,15.00
2014,08,05,04,10,15.00
2014,08,05,04,11,15.00
2014,08,05,04,12,15.00
2014,08,05,04,13,15.00
2014,08,05,04,14,14.90
2014,08,05,04,15,14.90
2014,08,05,04,16,14.90
2014,08,05,04,17,14.90
2014,08,05,04,18,14.90
2014,08,05,04,19,14.80
2014,08,05,04,20,14.80
2014,08,05,04,21,14.80
2014,08,05,04,22,14.80
2014,08,05,04,23,14.80
2014,08,05,04,24,14.80
2014,08,05,04,25,14.80
2014,08,05,04,26,14.80
2014,08,05,04,27,14.80
2014,08,05,04,28,14.80
2014,08,05,04,29,14.80
2014,08,05,04,30,14.80
2014,08,05,04,31,14.80
2014,08,05,04,32,14.80
2014,08,05,04,33,14.80
2014,08,05,04,34,14.80
2014,08,05,04,35,14.70
2014,08,05,04,36,14.70
2014,08,05,04,37,14.70
2014,08,05,04,38,14.70
2014,08,05,04,39,14.70
2014,08,05,04,40,14.70
2014,08,05,04,41,14.70
2014,08,05,04,42,14.70
2014,08,05,04,43,14.70
2014,08,05,04,44,14.60
2014,08,05,04,45,14.60
2014,08,05,04,46,14.60
2014,08,05,04,47,14.60
2014,08,05,04,48,14.60
2014,08,05,04,49,14.60
2014,08,05,04,50,14.60
2014,08,05,04,51,14.60
2014,08,05,04,52,14.60
2014,08,05,04,53,14.60
2014,08,05,04,54,14.60
2014,08,05,04,55,14.50
2014,08,05,04,56,14.50
2014,08,05,04,57,14.50
2014,08,05,04,58,14.50
2014,08,05,04,59,14.40
2014,08,05,05,00,14.40
2014,08,05,05,01,14.40
2014,08,05,05,02,14.40
2014,08,05,05,03,14.40
2014,08,05,05,04,14.40
2014,08,05,05,05,14.40
2014,08,05,05,06,14.40
2014,08,05,05,07,14.40
2014,08,05,05,08,14.40
2014,08,05,05,09,14.40
2014,08,05,05,10,14.40
2014,08,05,05,11,14.30
2014,08,05,05,12,14.30
2014,08,05,05,13,14.30
2014,08,05,05,14,14.30
2014,08,05,05,15,14.30
2014,08,05,05,16,14.30
2014,08,05,05,17,14.30
2014,08,05,05,18,14.30
2014,08,05,05,19,14.30
2014,08,05,05,20,14.30
2014,08,05,05,21,14.30
2014,08,05,05,22,14.30
2014,08,05,05,23,14.30
2014,08,05,05,24,14.30
2014,08,05,05,25,14.30
2014,08,05,05,26,14.20
2014,08,05,05,27,14.20
2014,08,05,05,28,14.20
2014,08,05,05,29,14.20
2014,08,05,05,30,14.20
2014,08,05,05,31,14.20
2014,08,05,05,32,14.20
2014,08,05,05,33,14.20
2014,08,05,05,34,14.10
2014,08,05,05,35,14.10
2014,08,05,05,36,14.10
2014,08,05,05,37,14.10
2014,08,05,05,38,14.10
2014,08,05,05,39,14.10
2014,08,05,05,40,14.10
2014,08,05,05,41,14.10
2014,08,05,05,42,14.10
2014,08,05,05,43,14.00
2014,08,05,05,44,14.00
2014,08,05,05,45,14.00
2014,08,05,05,46,14.00
2014,08,05,05,47,14.00
2014,08,05,05,48,14.00
2014,08,05,05,49,14.00
2014,08,05,05,50,14.00
2014,08,05,05,51,13.90
2014,08,05,05,52,13.90
2014,08,05,05,53,13.90
2014,08,05,05,54,13.90
2014,08,05,05,55,13.90
2014,08,05,05,56,13.90
2014,08,05,05,57,13.90
2014,08,05,05,58,13.90
2014,08,05,05,59,13.90
2014,08,05,06,00,13.90
2014,08,05,06,01,13.90
2014,08,05,06,02,13.90
2014,08,05,06,03,13.90
2014,08,05,06,04,13.90
2014,08,05,06,05,13.90
2014,08,05,06,06,13.90
2014,08,05,06,07,13.90
2014,08,05,06,08,13.90
2014,08,05,06,09,13.90
2014,08,05,06,10,13.90
2014,08,05,06,11,14.00
2014,08,05,06,12,14.00
2014,08,05,06,13,14.00
2014,08,05,06,14,14.00
2014,08,05,06,15,14.00
2014,08,05,06,16,14.00
2014,08,05,06,17,14.00
2014,08,05,06,18,14.10
2014,08,05,06,19,14.10
2014,08,05,06,20,14.10
2014,08,05,06,21,14.10
2014,08,05,06,22,14.10
2014,08,05,06,23,14.10
2014,08,05,06,24,14.10
2014,08,05,06,25,14.10
2014,08,05,06,26,14.10
2014,08,05,06,27,14.10
2014,08,05,06,28,14.10
2014,08,05,06,29,14.10
2014,08,05,06,30,14.10
2014,08,05,06,31,14.10
2014,08,05,06,32,14.10
2014,08,05,06,33,14.10
2014,08,05,06,34,14.10
2014,08,05,06,35,14.10
2014,08,05,06,36,14.10
2014,08,05,06,37,14.10
2014,08,05,06,38,14.10
2014,08,05,06,39,14.10
2014,08,05,06,40,14.10
2014,08,05,06,41,14.10
2014,08,05,06,42,14.10
2014,08,05,06,43,14.10
2014,08,05,06,44,14.20
2014,08,05,06,45,14.20
2014,08,05,06,46,14.20
2014,08,05,06,47,14.20
2014,08,05,06,48,14.20
2014,08,05,06,49,14.30
2014,08,05,06,50,14.30
2014,08,05,06,51,14.30
2014,08,05,06,52,14.30
2014,08,05,06,53,14.30
2014,08,05,06,54,14.30
2014,08,05,06,55,14.40
2014,08,05,06,56,14.40
2014,08,05,06,57,14.40
2014,08,05,06,58,14.40
2014,08,05,06,59,14.40
2014,08,05,07,00,14.50
2014,08,05,07,01,14.50
2014,08,05,07,02,14.50
2014,08,05,07,03,14.60
2014,08,05,07,04,14.60
2014,08,05,07,05,14.70
2014,08,05,07,06,14.70
2014,08,05,07,07,14.70
2014,08,05,07,08,14.80
2014,08,05,07,09,14.80
2014,08,05,07,10,14.90
2014,08,05,07,11,14.90
2014,08,05,07,12,15.00
2014,08,05,07,13,15.00
2014,08,05,07,14,15.00
2014,08,05,07,15,15.00
2014,08,05,07,16,15.00
2014,08,05,07,17,15.00
2014,08,05,07,18,15.00
2014,08,05,07,19,15.00
2014,08,05,07,20,15.00
2014,08,05,07,21,15.00
2014,08,05,07,22,15.10
2014,08,05,07,23,15.10
2014,08,05,07,24,15.10
2014,08,05,07,25,15.20
2014,08,05,07,26,15.20
2014,08,05,07,27,15.20
2014,08,05,07,28,15.20
2014,08,05,07,29,15.20
2014,08,05,07,30,15.30
2014,08,05,07,31,15.30
2014,08,05,07,32,15.30
2014,08,05,07,33,15.30
2014,08,05,07,34,15.30
2014,08,05,07,35,15.30
2014,08,05,07,36,15.30
2014,08,05,07,37,15.40
2014,08,05,07,38,15.40
2014,08,05,07,39,15.40
2014,08,05,07,40,15.40
2014,08,05,07,41,15.40
2014,08,05,07,42,15.40
2014,08,05,07,43,15.50
2014,08,05,07,44,15.50
2014,08,05,07,45,15.50
2014,08,05,07,46,15.50
2014,08,05,07,47,15.50
2014,08,05,07,48,15.50
2014,08,05,07,49,15.50
2014,08,05,07,50,15.50
2014,08,05,07,51,15.60
2014,08,05,07,52,15.60
2014,08,05,07,53,15.60
2014,08,05,07,54,15.60
2014,08,05,07,55,15.60
2014,08,05,07,56,15.70
2014,08,05,07,57,15.70
2014,08,05,07,58,15.70
2014,08,05,07,59,15.70
2014,08,05,08,00,15.80
2014,08,05,08,01,15.80
2014,08,05,08,02,15.80
2014,08,05,08,03,15.90
2014,08,05,08,04,16.00
2014,08,05,08,05,16.00
2014,08,05,08,06,16.10
2014,08,05,08,07,16.20
2014,08,05,08,08,16.30
2014,08,05,08,09,16.40
2014,08,05,08,10,16.40
2014,08,05,08,11,16.50
2014,08,05,08,12,16.50
2014,08,05,08,13,16.60
2014,08,05,08,14,16.70
2014,08,05,08,15,16.70
2014,08,05,08,16,16.70
2014,08,05,08,17,16.80
2014,08,05,08,18,16.80
2014,08,05,08,19,16.80
2014,08,05,08,20,16.80
2014,08,05,08,21,16.80
2014,08,05,08,22,16.80
2014,08,05,08,23,16.80
2014,08,05,08,24,16.80
2014,08,05,08,25,16.80
2014,08,05,08,26,16.80
2014,08,05,08,27,16.80
2014,08,05,08,28,16.90
2014,08,05,08,29,16.90
2014,08,05,08,30,16.90
2014,08,05,08,31,16.90
2014,08,05,08,32,16.90
2014,08,05,08,33,16.90
2014,08,05,08,34,16.90
2014,08,05,08,35,16.90
2014,08,05,08,36,17.00
2014,08,05,08,37,17.00
2014,08,05,08,38,17.10
2014,08,05,08,39,17.10
2014,08,05,08,40,17.10
2014,08,05,08,41,17.10
2014,08,05,08,42,17.20
2014,08,05,08,43,17.30
2014,08,05,08,44,17.30
2014,08,05,08,45,17.40
2014,08,05,08,46,17.40
2014,08,05,08,47,17.50
2014,08,05,08,48,17.60
2014,08,05,08,49,17.60
2014,08,05,08,50,17.70
2014,08,05,08,51,17.80
2014,08,05,08,52,17.80
2014,08,05,08,53,17.90
2014,08,05,08,54,17.90
2014,08,05,08,55,17.90
2014,08,05,08,56,18.00
2014,08,05,08,57,18.00
2014,08,05,08,58,18.10
2014,08,05,08,59,18.10
2014,08,05,09,00,18.20
2014,08,05,09,01,18.20
2014,08,05,09,02,18.20
2014,08,05,09,03,18.20
2014,08,05,09,04,18.20
2014,08,05,09,05,18.40
2014,08,05,09,06,18.50
2014,08,05,09,07,18.60
2014,08,05,09,08,18.70
2014,08,05,09,09,18.70
2014,08,05,09,10,18.80
2014,08,05,09,11,18.90
2014,08,05,09,12,18.90
2014,08,05,09,13,19.00
2014,08,05,09,14,19.10
2014,08,05,09,15,19.10
2014,08,05,09,16,19.20
2014,08,05,09,17,19.30
2014,08,05,09,18,19.40
2014,08,05,09,19,19.50
2014,08,05,09,20,19.50
2014,08,05,09,21,19.60
2014,08,05,09,22,19.70
2014,08,05,09,23,19.80
2014,08,05,09,24,19.90
2014,08,05,09,25,19.90
2014,08,05,09,26,20.00
2014,08,05,09,27,20.10
2014,08,05,09,28,20.10
2014,08,05,09,29,20.20
2014,08,05,09,30,20.20
2014,08,05,09,31,20.20
2014,08,05,09,32,20.20
2014,08,05,09,33,20.30
2014,08,05,09,34,20.30
2014,08,05,09,35,20.30
2014,08,05,09,36,20.30
2014,08,05,09,37,20.30
2014,08,05,09,38,20.40
2014,08,05,09,39,20.40
2014,08,05,09,40,20.50
2014,08,05,09,41,20.50
2014,08,05,09,42,20.50
2014,08,05,09,43,20.60
2014,08,05,09,44,20.70
2014,08,05,09,45,20.80
2014,08,05,09,46,20.90
2014,08,05,09,47,21.00
2014,08,05,09,48,21.10
2014,08,05,09,49,21.10
2014,08,05,09,50,21.20
2014,08,05,09,51,21.20
2014,08,05,09,52,21.30
2014,08,05,09,53,21.40
2014,08,05,09,54,21.40
2014,08,05,09,55,21.40
2014,08,05,09,56,21.40
2014,08,05,09,57,21.40
2014,08,05,09,58,21.40
2014,08,05,09,59,21.40
2014,08,05,10,00,21.40
2014,08,05,10,01,21.40
2014,08,05,10,02,21.40
2014,08,05,10,03,21.40
2014,08,05,10,04,21.50
2014,08,05,10,05,21.50
2014,08,05,10,06,21.60
2014,08,05,10,07,21.70
2014,08,05,10,08,21.70
2014,08,05,10,09,21.80
2014,08,05,10,10,21.80
2014,08,05,10,11,21.80
2014,08,05,10,12,21.80
2014,08,05,10,13,21.70
2014,08,05,10,14,21.60
2014,08,05,10,15,21.60
2014,08,05,10,16,21.70
2014,08,05,10,17,21.70
2014,08,05,10,18,21.70
2014,08,05,10,19,21.80
2014,08,05,10,20,21.90
2014,08,05,10,21,21.90
2014,08,05,10,22,22.00
2014,08,05,10,23,22.00
2014,08,05,10,24,22.10
2014,08,05,10,25,22.10
2014,08,05,10,26,22.20
2014,08,05,10,27,22.20
2014,08,05,10,28,22.30
2014,08,05,10,29,22.30
2014,08,05,10,30,22.30
2014,08,05,10,31,22.30
2014,08,05,10,32,22.30
2014,08,05,10,33,22.30
2014,08,05,10,34,22.20
2014,08,05,10,35,22.20
2014,08,05,10,36,22.20
2014,08,05,10,37,22.10
2014,08,05,10,38,22.10
2014,08,05,10,39,22.10
2014,08,05,10,40,22.00
2014,08,05,10,41,22.00
2014,08,05,10,42,22.00
2014,08,05,10,43,22.00
2014,08,05,10,44,22.00
2014,08,05,10,45,22.00
2014,08,05,10,46,22.10
2014,08,05,10,47,22.10
2014,08,05,10,48,22.10
2014,08,05,10,49,22.20
2014,08,05,10,50,22.30
2014,08,05,10,51,22.40
2014,08,05,10,52,22.40
2014,08,05,10,53,22.50
2014,08,05,10,54,22.60
2014,08,05,10,55,22.70
2014,08,05,10,56,22.70
2014,08,05,10,57,22.80
2014,08,05,10,58,22.90
2014,08,05,10,59,23.00
2014,08,05,11,00,23.00
2014,08,05,11,01,23.10
2014,08,05,11,02,23.10
2014,08,05,11,03,23.10
2014,08,05,11,04,23.10
2014,08,05,11,05,23.10
2014,08,05,11,06,23.10
2014,08,05,11,07,23.10
2014,08,05,11,08,23.10
2014,08,05,11,09,23.10
2014,08,05,11,10,23.10
2014,08,05,11,11,23.10
2014,08,05,11,12,23.00
2014,08,05,11,13,23.10
2014,08,05,11,14,23.10
2014,08,05,11,15,23.10
2014,08,05,11,16,23.10
2014,08,05,11,17,23.20
2014,08,05,11,18,23.20
2014,08,05,11,19,23.20
2014,08,05,11,20,23.20
2014,08,05,11,21,23.30
2014,08,05,11,22,23.40
2014,08,05,11,23,23.40
2014,08,05,11,24,23.40
2014,08,05,11,25,23.50
2014,08,05,11,26,23.60
2014,08,05,11,27,23.70
2014,08,05,11,28,23.80
2014,08,05,11,29,23.90
2014,08,05,11,30,23.90
2014,08,05,11,31,24.00
2014,08,05,11,32,24.00
2014,08,05,11,33,24.00
2014,08,05,11,34,24.10
2014,08,05,11,35,24.10
2014,08,05,11,36,24.10
2014,08,05,11,37,24.10
2014,08,05,11,38,24.10
2014,08,05,11,39,24.00
2014,08,05,11,40,24.00
2014,08,05,11,41,23.90
2014,08,05,11,42,23.90
2014,08,05,11,43,23.90
2014,08,05,11,44,23.90
2014,08,05,11,45,24.00
2014,08,05,11,46,24.10
2014,08,05,11,47,24.10
2014,08,05,11,48,24.10
2014,08,05,11,49,24.10
2014,08,05,11,50,24.10
2014,08,05,11,51,24.00
2014,08,05,11,52,23.80
2014,08,05,11,53,23.50
2014,08,05,11,54,23.40
2014,08,05,11,55,23.30
2014,08,05,11,56,23.20
2014,08,05,11,57,23.10
2014,08,05,11,58,23.10
2014,08,05,11,59,23.10
2014,08,05,12,00,23.20
2014,08,05,12,01,23.20
2014,08,05,12,02,23.20
2014,08,05,12,03,23.20
2014,08,05,12,04,23.10
2014,08,05,12,05,23.10
2014,08,05,12,06,22.90
2014,08,05,12,07,22.80
2014,08,05,12,08,22.60
2014,08,05,12,09,22.40
2014,08,05,12,10,22.20
2014,08,05,12,11,21.90
2014,08,05,12,12,21.80
2014,08,05,12,13,21.60
2014,08,05,12,14,21.50
2014,08,05,12,15,21.40
2014,08,05,12,16,21.30
2014,08,05,12,17,21.20
2014,08,05,12,18,21.10
2014,08,05,12,19,21.00
2014,08,05,12,20,20.90
2014,08,05,12,21,20.90
2014,08,05,12,22,20.90
2014,08,05,12,23,20.80
2014,08,05,12,24,20.80
2014,08,05,12,25,20.80
2014,08,05,12,26,20.70
2014,08,05,12,27,20.70
2014,08,05,12,28,20.80
2014,08,05,12,29,20.80
2014,08,05,12,30,20.80
2014,08,05,12,31,20.80
2014,08,05,12,32,20.80
2014,08,05,12,33,20.90
2014,08,05,12,34,20.90
2014,08,05,12,35,20.90
2014,08,05,12,36,20.90
2014,08,05,12,37,21.00
2014,08,05,12,38,21.00
2014,08,05,12,39,21.10
2014,08,05,12,40,21.20
2014,08,05,12,41,21.20
2014,08,05,12,42,21.30
2014,08,05,12,43,21.30
2014,08,05,12,44,21.40
2014,08,05,12,45,21.40
2014,08,05,12,46,21.40
2014,08,05,12,47,21.50
2014,08,05,12,48,21.50
2014,08,05,12,49,21.60
2014,08,05,12,50,21.70
2014,08,05,12,51,21.80
2014,08,05,12,52,21.80
2014,08,05,12,53,21.90
2014,08,05,12,54,22.00
2014,08,05,12,55,22.00
2014,08,05,12,56,22.10
2014,08,05,12,57,22.10
2014,08,05,12,58,22.20
2014,08,05,12,59,22.20
2014,08,05,13,00,22.20
2014,08,05,13,01,22.30
2014,08,05,13,02,22.40
2014,08,05,13,03,22.50
2014,08,05,13,04,22.60
2014,08,05,13,05,22.70
2014,08,05,13,06,22.70
2014,08,05,13,07,22.80
2014,08,05,13,08,22.80
2014,08,05,13,09,22.90
2014,08,05,13,10,23.10
2014,08,05,13,11,23.20
2014,08,05,13,12,23.30
2014,08,05,13,13,23.40
2014,08,05,13,14,23.50
2014,08,05,13,15,23.50
2014,08,05,13,16,23.50
2014,08,05,13,17,23.50
2014,08,05,13,18,23.50
2014,08,05,13,19,23.50
2014,08,05,13,20,23.60
2014,08,05,13,21,23.60
2014,08,05,13,22,23.70
2014,08,05,13,23,23.70
2014,08,05,13,24,23.60
2014,08,05,13,25,23.60
2014,08,05,13,26,23.50
2014,08,05,13,27,23.50
2014,08,05,13,28,23.40
2014,08,05,13,29,23.30
2014,08,05,13,30,23.30
2014,08,05,13,31,23.30
2014,08,05,13,32,23.40
2014,08,05,13,33,23.50
2014,08,05,13,34,23.50
2014,08,05,13,35,23.60
2014,08,05,13,36,23.70
2014,08,05,13,37,23.80
2014,08,05,13,38,23.90
2014,08,05,13,39,24.00
2014,08,05,13,40,24.20
2014,08,05,13,41,24.30
2014,08,05,13,42,24.40
2014,08,05,13,43,24.40
2014,08,05,13,44,24.50
2014,08,05,13,45,24.60
2014,08,05,13,46,24.70
2014,08,05,13,47,24.80
2014,08,05,13,48,24.80
2014,08,05,13,49,24.90
2014,08,05,13,50,24.90
2014,08,05,13,51,25.00
2014,08,05,13,52,25.00
2014,08,05,13,53,25.10
2014,08,05,13,54,25.20
2014,08,05,13,55,25.30
2014,08,05,13,56,25.30
2014,08,05,13,57,25.40
2014,08,05,13,58,25.50
2014,08,05,13,59,25.60
2014,08,05,14,00,25.60
2014,08,05,14,01,25.50
2014,08,05,14,02,25.40
2014,08,05,14,03,25.30
2014,08,05,14,04,25.20
2014,08,05,14,05,25.10
2014,08,05,14,06,25.00
2014,08,05,14,07,25.00
2014,08,05,14,08,25.00
2014,08,05,14,09,25.00
2014,08,05,14,10,25.10
2014,08,05,14,11,25.10
2014,08,05,14,12,25.10
2014,08,05,14,13,25.10
2014,08,05,14,14,25.10
2014,08,05,14,15,25.20
2014,08,05,14,16,25.20
2014,08,05,14,17,25.30
2014,08,05,14,18,25.30
2014,08,05,14,19,25.30
2014,08,05,14,20,25.20
2014,08,05,14,21,25.20
2014,08,05,14,22,25.20
2014,08,05,14,23,25.20
2014,08,05,14,24,25.20
2014,08,05,14,25,25.20
2014,08,05,14,26,25.20
2014,08,05,14,27,25.20
2014,08,05,14,28,25.20
2014,08,05,14,29,25.20
2014,08,05,14,30,25.20
2014,08,05,14,31,25.20
2014,08,05,14,32,25.20
2014,08,05,14,33,25.20
2014,08,05,14,34,25.20
2014,08,05,14,35,25.10
2014,08,05,14,36,25.10
2014,08,05,14,37,25.00
2014,08,05,14,38,24.90
2014,08,05,14,39,24.80
2014,08,05,14,40,24.80
2014,08,05,14,41,24.80
2014,08,05,14,42,24.70
2014,08,05,14,43,24.70
2014,08,05,14,44,24.60
2014,08,05,14,45,24.70
2014,08,05,14,46,24.70
2014,08,05,14,47,24.70
2014,08,05,14,48,24.60
2014,08,05,14,49,24.50
2014,08,05,14,50,24.50
2014,08,05,14,51,24.50
2014,08,05,14,52,24.60
2014,08,05,14,53,24.60
2014,08,05,14,54,24.70
2014,08,05,14,55,24.80
2014,08,05,14,56,24.80
2014,08,05,14,57,24.80
2014,08,05,14,58,24.90
2014,08,05,14,59,24.80
2014,08,05,15,00,24.80
2014,08,05,15,01,24.90
2014,08,05,15,02,24.90
2014,08,05,15,03,24.90
2014,08,05,15,04,24.90
2014,08,05,15,05,24.90
2014,08,05,15,06,24.90
2014,08,05,15,07,24.90
2014,08,05,15,08,25.00
2014,08,05,15,09,25.00
2014,08,05,15,10,25.10
2014,08,05,15,11,25.10
2014,08,05,15,12,25.10
2014,08,05,15,13,25.10
2014,08,05,15,14,25.10
2014,08,05,15,15,25.10
2014,08,05,15,16,25.10
2014,08,05,15,17,25.10
2014,08,05,15,18,25.10
2014,08,05,15,19,25.10
2014,08,05,15,20,25.10
2014,08,05,15,21,25.20
2014,08,05,15,22,25.20
2014,08,05,15,23,25.20
2014,08,05,15,24,25.20
2014,08,05,15,25,25.30
2014,08,05,15,26,25.30
2014,08,05,15,27,25.30
2014,08,05,15,28,25.30
2014,08,05,15,29,25.30
2014,08,05,15,30,25.20
2014,08,05,15,31,25.20
2014,08,05,15,32,25.10
2014,08,05,15,33,25.10
2014,08,05,15,34,25.10
2014,08,05,15,35,25.20
2014,08,05,15,36,25.20
2014,08,05,15,37,25.20
2014,08,05,15,38,25.30
2014,08,05,15,39,25.30
2014,08,05,15,40,25.30
2014,08,05,15,41,25.30
2014,08,05,15,42,25.40
2014,08,05,15,43,25.50
2014,08,05,15,44,25.70
2014,08,05,15,45,25.80
2014,08,05,15,46,25.90
2014,08,05,15,47,25.90
2014,08,05,15,48,25.70
2014,08,05,15,49,25.70
2014,08,05,15,50,25.60
2014,08,05,15,51,25.60
2014,08,05,15,52,25.50
2014,08,05,15,53,25.50
2014,08,05,15,54,25.50
2014,08,05,15,55,25.30
2014,08,05,15,56,25.40
2014,08,05,15,57,25.40
2014,08,05,15,58,25.50
2014,08,05,15,59,25.60
2014,08,05,16,00,25.70
2014,08,05,16,01,25.90
2014,08,05,16,02,26.00
2014,08,05,16,03,26.10
2014,08,05,16,04,26.20
2014,08,05,16,05,26.30
2014,08,05,16,06,26.30
2014,08,05,16,07,26.40
2014,08,05,16,08,26.40
2014,08,05,16,09,26.50
2014,08,05,16,10,26.50
2014,08,05,16,11,26.50
2014,08,05,16,12,26.40
2014,08,05,16,13,26.30
2014,08,05,16,14,26.20
2014,08,05,16,15,26.10
2014,08,05,16,16,26.00
2014,08,05,16,17,25.90
2014,08,05,16,18,25.90
2014,08,05,16,19,25.80
2014,08,05,16,20,25.70
2014,08,05,16,21,25.60
2014,08,05,16,22,25.60
2014,08,05,16,23,25.60
2014,08,05,16,24,25.60
2014,08,05,16,25,25.70
2014,08,05,16,26,25.60
2014,08,05,16,27,25.60
2014,08,05,16,28,25.60
2014,08,05,16,29,25.60
2014,08,05,16,30,25.70
2014,08,05,16,31,25.70
2014,08,05,16,32,25.70
2014,08,05,16,33,25.70
2014,08,05,16,34,25.70
2014,08,05,16,35,25.70
2014,08,05,16,36,25.60
2014,08,05,16,37,25.50
2014,08,05,16,38,25.40
2014,08,05,16,39,25.30
2014,08,05,16,40,25.30
2014,08,05,16,41,25.30
2014,08,05,16,42,25.20
2014,08,05,16,43,25.20
2014,08,05,16,44,25.10
2014,08,05,16,45,25.00
2014,08,05,16,46,25.00
2014,08,05,16,47,25.10
2014,08,05,16,48,25.10
2014,08,05,16,49,25.10
2014,08,05,16,50,25.20
2014,08,05,16,51,25.20
2014,08,05,16,52,25.20
2014,08,05,16,53,25.20
2014,08,05,16,54,25.10
2014,08,05,16,55,25.00
2014,08,05,16,56,24.90
2014,08,05,16,57,24.90
2014,08,05,16,58,24.90
2014,08,05,16,59,24.80
2014,08,05,17,00,24.80
2014,08,05,17,01,24.70
2014,08,05,17,02,24.70
2014,08,05,17,03,24.70
2014,08,05,17,04,24.70
2014,08,05,17,05,24.60
2014,08,05,17,06,24.60
2014,08,05,17,07,24.60
2014,08,05,17,08,24.60
2014,08,05,17,09,24.60
2014,08,05,17,10,24.60
2014,08,05,17,11,24.60
2014,08,05,17,12,24.70
2014,08,05,17,13,24.80
2014,08,05,17,14,24.80
2014,08,05,17,15,24.80
2014,08,05,17,16,24.80
2014,08,05,17,17,24.70
2014,08,05,17,18,24.60
2014,08,05,17,19,24.50